Content
SEND FEEDBACK

Daily
Averages
Monthly
Summary
Mexico

PUERTO MORELOS, QUINTANA ROO


Home > North America > Mexico > Quintana Roo
Elevation: 20 feet     Latitude: 20 51N     Longitude: 086 52W

WEATHER
 
SELECT A DAY
Number of Records: 164,004;   Date Range: 1/1/95 - 9/22/14
 
SHARE

PRINT THIS DATA

[ ← Previous Day ]
WEATHER ALMANAC - DECEMBER 22, 2013
[ Next Day → ]
[ °C ]   °F
Weather ElementAverageHighLow
Temperature80.7 °F86 °F (11:41 am)77 °F (6:42 pm)
Dewpoint74.7 °F77 °F (12:42 pm)73.4 °F (1:44 am)
Humidity82.3 %89 % (5:44 pm)70 % (11:41 am)
Barometer29.97 in30.05 in (9:43 pm)29.89 in (2:46 am)
Wind Speed11.9 mph19.6 mph (9:42 am)
Weather ElementAverage
Visibility7 mi
Wind DirectionSE (132.2 °)

Weather ElementTotal
Precipitation---
Cooling Degree Days16.5 (Base 65)
Growing Degree Days31.5 (Base 50)
Averaged from 23 records on December 22, 2013
WEATHER CONDITIONS BREAKOUT
WIND DIRECTION BREAKOUT
WEATHER BY HOUR - DECEMBER 22, 2013
[ °C ]   °F
Local TimeTemperatureDewpointHumidityBarometerVisibilityWind DirectionWind SpeedGust SpeedPrecipitationEventsConditions
1:44 AM78.8 °F73.4 °F83 %29.94 in6.0 miSSE (150°)10.4 mphMostly Cloudy
2:46 AM78.8 °F73.4 °F83 %29.89 in7.0 miSE (140°)12.7 mphMostly Cloudy
3:45 AM78.8 °F73.4 °F83 %29.93 in7.0 miSE (140°)13.8 mphMostly Cloudy
4:44 AM78.8 °F73.4 °F83 %29.93 in7.0 miSE (140°)13.8 mphScattered Clouds
5:45 AM78.8 °F73.4 °F83 %29.93 in7.0 miSE (140°)15.0 mphScattered Clouds
6:44 AM78.8 °F73.4 °F83 %29.96 in7.0 miSE (130°)12.7 mphScattered Clouds
7:41 AM80.6 °F75.2 °F84 %29.98 in7.0 miSE (130°)10.4 mphMostly Cloudy
8:44 AM82.4 °F75.2 °F79 %30.00 in7.0 miSE (130°)11.5 mphMostly Cloudy
9:42 AM84.2 °F75.2 °F74 %30.02 in7.0 miSE (140°)19.6 mphMostly Cloudy
10:40 AM84.2 °F75.2 °F74 %30.02 in7.0 miESE (120°)16.1 mphMostly Cloudy
11:41 AM86.0 °F75.2 °F70 %29.97 in7.0 miSE (130°)16.1 mphMostly Cloudy
12:42 PM86.0 °F77.0 °F74 %29.96 in7.0 miSE (140°)13.8 mphMostly Cloudy
1:41 PM84.2 °F75.2 °F74 %29.95 in7.0 miSE (130°)13.8 mphMostly Cloudy
2:43 PM84.2 °F75.2 °F74 %29.89 in7.0 miSSE (150°)15.0 mphMostly Cloudy
3:43 PM80.6 °F75.2 °F84 %29.96 in7.0 miSE (140°)11.5 mphMostly Cloudy
4:46 PM80.6 °F75.2 °F84 %29.97 in7.0 miSE (140°)9.2 mphScattered Clouds
5:44 PM78.8 °F75.2 °F89 %29.96 in7.0 miESE (120°)6.9 mphScattered Clouds
6:42 PM77.0 °F73.4 °F89 %30.01 in7.0 miSE (130°)4.6 mphScattered Clouds
7:43 PM78.8 °F75.2 °F89 %30.02 in7.0 miESE (120°)9.2 mphClear
8:42 PM78.8 °F75.2 °F89 %30.01 in7.0 miESE (120°)8.1 mphClear
9:43 PM78.8 °F75.2 °F89 %30.05 in7.0 miESE (110°)6.9 mphScattered Clouds
10:43 PM78.8 °F75.2 °F89 %30.04 in7.0 miSE (130°)11.5 mphScattered Clouds
11:45 PM78.8 °F75.2 °F89 %30.02 in7.0 miESE (120°)11.5 mphScattered Clouds
Hourly data recorded from MMUN, located miles away from Puerto Morelos, Quintana Roo







STORIES FROM OUR PARTNERS